sat.trackr.live / text

‹ back to catalog

STARLING 4

NORAD 57386 · 2023-100A

PAYLOAD ACTIVE UNKNOWN

§ Identity

Operator
Country
US
Launch date
2023-07-18
Launch site
RLLB
Launch vehicle
Mass (kg)
RCS (m²)

External: N2YO · Heavens-Above · Gunter

§ Orbital elements

Epoch: 2026-05-25T03:19:01.661088Z

Period
95.58 min
Inclination
99.5106°
Eccentricity
0.0006538
Mean motion
15.06576720 rev/d
Perigee alt
542.1 km
Apogee alt
551.2 km
Semi-major
6,924.8 km
B*
9.1222e-5
RAAN
157.5001°
Arg perigee
177.1692°
Mean anomaly
182.9567°
Rev number
15,643

§ Raw data

STARLING 41 57386U 23100A   26145.13821367  .00001260  00000+0  91222-4 0  99922 57386  99.5106 157.5001 0006538 177.1692 182.9567 15.06576720156431

JSON: /api/v1/satellites/57386 · /tle

For live sub-satellite position, see the globe view (requires WebGL).

§ Visibility from observer

Set your observer location to see the next 7 days of passes ≥ 10°. The values pass through the URL so the page stays shareable.

No JS? Fill the form by hand. The geolocation button needs JavaScript.